Date String (YYYY-MM-DD hh:mm:ss) UTC,Instrument flags,Ambient pressure (hPa),Sample flow (lpm),Bypass flow (lpm),Sample temperature (°C),Ambient temperature (°C),ASC tube jacket temperature (°C),LED temperature (°C),Box temperature (°C),Sample RH (%),Span deviation,Mass concentration (μg/m³),Mass concentration (μg/m³),Mass concentration (μg/m³)
DateTimeUTC,F1_M11,P_M11,Q1_M11,Q2_M11,T1_M11,T2_M11,T3_M11,T4_M11,T5_M11,U1_M11,ZSPAN_M11,X2_M11,X0_M11,X1_M11
2023-01-08 15:00:00,,0827.5,5.01,0.00,22.5,21.6,00.0,31.3,24.3,11.0,0004.5,0008.09,0011.85,0007.91
2023-01-08 15:01:00,,0827.5,5.00,0.00,22.5,21.3,00.0,31.3,24.2,10.9,0004.3,0008.04,0011.78,0007.86
2023-01-08 15:02:00,,0827.4,5.00,0.00,22.5,21.2,00.0,31.3,24.2,11.1,0004.5,0007.98,0011.55,0007.82
2023-01-08 15:03:00,,0827.5,4.99,0.00,22.4,21.2,00.0,31.3,24.2,11.3,0004.6,0007.98,0011.59,0007.81
2023-01-08 15:04:00,,0827.6,5.01,0.00,22.4,21.1,00.0,31.3,24.2,11.1,0004.5,0007.96,0011.60,0007.78
2023-01-08 15:05:00,,0827.5,5.00,0.00,22.4,21.1,00.0,31.3,24.1,11.2,0004.5,0007.95,0011.65,0007.75
2023-01-08 15:06:00,,0827.4,5.00,0.00,22.4,21.0,00.0,31.3,24.1,11.1,0004.5,0007.89,0011.59,0007.70
2023-01-08 15:07:00,,0827.3,5.02,0.00,22.4,21.0,00.0,31.3,24.1,11.2,0004.2,0007.84,0011.51,0007.66
2023-01-08 15:08:00,,0827.3,4.99,0.00,22.4,21.0,00.0,31.3,24.1,11.1,0004.0,0007.77,0011.36,0007.61
2023-01-08 15:09:00,,0827.4,4.99,0.00,22.4,21.1,00.0,31.3,24.1,11.2,0003.8,0007.72,0011.30,0007.56
2023-01-08 15:10:00,,0827.5,5.01,0.00,22.4,21.1,00.0,31.2,24.1,11.1,0003.6,0007.65,0011.21,0007.51
2023-01-08 15:11:00,,0827.5,5.01,0.00,22.4,21.0,00.0,31.2,24.1,10.9,0003.6,0007.54,0011.07,0007.41
2023-01-08 15:12:00,,0827.6,5.00,0.00,22.3,20.9,00.0,31.2,24.0,10.0,0003.8,0007.33,0010.78,0007.21
2023-01-08 15:13:00,,0827.5,5.00,0.00,22.3,20.9,00.0,31.2,24.0,09.4,0003.7,0006.98,0010.35,0006.88
2023-01-08 15:14:00,,0827.4,5.00,0.00,22.3,20.9,00.0,31.2,24.0,09.4,0003.7,0006.62,0009.89,0006.52
2023-01-08 15:15:00,,0827.4,5.00,0.00,22.3,20.9,00.0,31.2,23.9,09.7,0003.8,0006.31,0009.49,0006.21
2023-01-08 15:16:00,,0827.5,5.00,0.00,22.3,20.8,00.0,31.2,23.9,10.2,0003.7,0006.12,0009.25,0006.03
2023-01-08 15:17:00,,0827.6,4.99,0.00,22.2,20.8,00.0,31.2,23.9,10.4,0003.9,0005.92,0008.97,0005.83
2023-01-08 15:18:00,,0827.6,5.01,0.00,22.2,20.9,00.0,31.2,23.9,10.5,0003.8,0005.75,0008.74,0005.66
2023-01-08 15:19:00,,0827.5,5.00,0.00,22.3,21.8,00.0,31.1,24.1,10.5,0003.7,0005.59,0008.53,0005.50
2023-01-08 15:20:00,,0827.4,4.99,0.00,22.4,22.7,00.0,31.1,24.4,10.5,0003.6,0005.39,0008.25,0005.31
2023-01-08 15:21:00,,0827.3,5.00,0.00,22.5,22.6,00.0,31.2,24.5,10.5,0003.8,0005.20,0007.99,0005.12
2023-01-08 15:22:00,,0827.2,5.00,0.00,22.5,22.2,00.0,31.2,24.4,10.5,0004.2,0005.09,0007.85,0004.99
2023-01-08 15:23:00,,0827.3,5.00,0.00,22.5,22.0,00.0,31.3,24.4,10.3,0004.4,0005.08,0007.84,0004.96
2023-01-08 15:24:00,,0827.2,5.00,0.00,22.5,21.8,00.0,31.3,24.3,10.3,0004.1,0005.15,0007.94,0005.03
2023-01-08 15:25:00,,0827.3,5.00,0.00,22.5,21.6,00.0,31.3,24.3,10.1,0003.8,0005.23,0008.02,0005.12
2023-01-08 15:26:00,,0827.2,5.00,0.00,22.5,21.5,00.0,31.3,24.3,10.0,0003.9,0005.27,0008.06,0005.17
2023-01-08 15:27:00,,0827.4,4.99,0.00,22.5,21.3,00.0,31.3,24.2,10.1,0004.1,0005.22,0007.95,0005.12
2023-01-08 15:28:00,,0827.2,5.00,0.00,22.5,21.2,00.0,31.3,24.2,10.3,0003.9,0005.15,0007.85,0005.05
2023-01-08 15:29:00,,0827.2,5.00,0.00,22.5,21.2,00.0,31.3,24.2,10.4,0004.0,0005.10,0007.79,0005.00
2023-01-08 15:30:00,,0827.3,5.00,0.00,22.5,21.2,00.0,31.3,24.2,10.1,0004.1,0005.03,0007.71,0004.93
2023-01-08 15:31:00,,0827.4,5.01,0.00,22.5,21.2,00.0,31.3,24.2,09.3,0004.3,0004.91,0007.56,0004.80
2023-01-08 15:32:00,,0827.4,5.00,0.00,22.4,21.1,00.0,31.3,24.2,09.5,0004.5,0004.80,0007.46,0004.68
2023-01-08 15:33:00,,0827.4,5.00,0.00,22.4,21.1,00.0,31.3,24.2,10.2,0004.6,0004.73,0007.38,0004.63
2023-01-08 15:34:00,,0827.4,5.00,0.00,22.4,21.0,00.0,31.3,24.1,09.8,0004.2,0004.66,0007.25,0004.58
2023-01-08 15:35:00,,0827.4,5.00,0.00,22.4,21.0,00.0,31.3,24.1,09.9,0004.1,0004.64,0007.21,0004.55
2023-01-08 15:36:00,,0827.5,5.00,0.00,22.4,20.9,00.0,31.3,24.1,10.1,0004.0,0004.66,0007.28,0004.56
2023-01-08 15:37:00,,0827.4,5.00,0.00,22.3,20.9,00.0,31.3,24.0,10.0,0004.1,0004.69,0007.34,0004.60
2023-01-08 15:38:00,,0827.4,5.01,0.00,22.3,20.9,00.0,31.3,24.0,10.0,0003.8,0004.68,0007.34,0004.60
2023-01-08 15:39:00,,0827.4,5.00,0.00,22.3,20.8,00.0,31.2,24.0,10.3,0003.7,0004.74,0007.45,0004.66
2023-01-08 15:40:00,,0827.4,5.00,0.00,22.3,20.8,00.0,31.2,24.0,09.7,0003.8,0004.69,0007.41,0004.60
2023-01-08 15:41:00,,0827.4,5.00,0.00,22.3,20.7,00.0,31.2,24.0,09.6,0003.7,0004.61,0007.34,0004.52
2023-01-08 15:42:00,,0827.4,4.99,0.00,22.3,20.8,00.0,31.2,24.0,09.9,0003.8,0004.65,0007.41,0004.55
2023-01-08 15:43:00,,0827.3,5.00,0.00,22.3,20.9,00.0,31.2,24.0,10.1,0003.5,0004.75,0007.53,0004.65
2023-01-08 15:44:00,,0827.4,5.01,0.00,22.3,21.7,00.0,31.1,24.2,10.1,0003.5,0004.78,0007.79,0004.67
2023-01-08 15:45:00,,0827.3,4.99,0.00,22.4,22.7,00.0,31.2,24.4,09.9,0003.7,0004.80,0008.28,0004.70
2023-01-08 15:46:00,,0827.4,5.00,0.00,22.6,23.1,00.0,31.2,24.6,09.8,0003.8,0004.80,0008.29,0004.70
2023-01-08 15:47:00,,0827.4,4.99,0.00,22.6,22.7,00.0,31.3,24.6,09.8,0004.0,0004.78,0008.25,0004.69
2023-01-08 15:48:00,,0827.4,4.99,0.00,22.6,22.3,00.0,31.3,24.5,09.7,0003.9,0004.75,0008.24,0004.65
2023-01-08 15:49:00,,0827.3,5.00,0.00,22.6,21.9,00.0,31.3,24.4,09.1,0003.9,0004.70,0008.18,0004.60
2023-01-08 15:50:00,,0827.3,5.01,0.00,22.6,21.7,00.0,31.3,24.4,07.9,0003.9,0004.46,0007.89,0004.37
2023-01-08 15:51:00,,0827.3,4.99,0.00,22.6,21.6,00.0,31.3,24.4,07.9,0003.8,0004.32,0007.73,0004.22
2023-01-08 15:52:00,,0827.4,5.00,0.00,22.6,21.5,00.0,31.3,24.3,08.5,0003.5,0004.22,0007.58,0004.13
2023-01-08 15:53:00,,0827.6,5.00,0.00,22.6,21.4,00.0,31.4,24.3,07.7,0003.4,0004.05,0007.31,0003.98
2023-01-08 15:54:00,,0827.6,4.99,0.00,22.5,21.2,00.0,31.4,24.2,07.2,0003.3,0003.78,0006.74,0003.72
2023-01-08 15:55:00,,0827.5,5.00,0.00,22.5,21.1,00.0,31.4,24.2,07.4,0002.9,0003.50,0005.56,0003.45
2023-01-08 15:56:00,,0827.5,5.00,0.00,22.5,20.8,00.0,31.4,24.1,08.5,0002.7,0003.33,0004.45,0003.27
2023-01-08 15:57:00,,0827.4,5.00,0.00,22.4,20.5,00.0,31.3,23.9,08.9,0002.8,0003.21,0004.17,0003.17
2023-01-08 15:58:00,,0827.4,5.00,0.00,22.3,20.3,00.0,31.3,23.8,08.5,0002.5,0003.00,0003.80,0002.92
2023-01-08 15:59:00,,0827.4,5.00,0.00,22.3,20.4,00.0,31.3,23.8,08.3,0001.0,0002.69,0003.37,0002.62
